Temp
-19 -19 -19 -19 -19 -20 -20 -20 -20 -20 -21 -21 -21 -22 -23 -23 -24 -24 -24 -24 -24 -24 -24 -24 -23 -23 -22 -22 -20 -19 -18 -18 -17 -17 -16 -15 -15 -15 -15 -13 -13 -13 -12 -12
-19 -19 -19 -19 -19 -20 -20 -20 -20 -20 -20 -21 -21 -21 -22 -23 -23 -23 -24 -24 -24 -24 -23 -23 -23 -23 -22 -22 -21 -20 -18 -18 -18 -17 -16 -16 -15 -15 -16 -17 -15 -13 -13 -13
-19 -19 -19 -19 -19 -19 -19 -20 -20 -20 -20 -20 -21 -21 -21 -22 -23 -23 -23 -23 -23 -23 -23 -23 -23 -23 -22 -22 -22 -20 -19 -18 -18 -17 -17 -16 -15 -15 -16 -15 -16 -15 -15 -13
-18 -19 -18 -19 -19 -19 -19 -19 -19 -20 -20 -20 -21 -21 -21 -21 -22 -22 -23 -23 -23 -23 -23 -23 -23 -23 -22 -22 -22 -21 -19 -18 -18 -18 -17 -17 -16 -16 -15 -15 -16 -17 -14 -14
-18 -18 -19 -19 -19 -19 -19 -20 -20 -20 -19 -19 -20 -20 -21 -21 -21 -22 -22 -23 -23 -23 -23 -23 -23 -23 -23 -23 -22 -22 -22 -19 -18 -17 -18 -17 -17 -16 -15 -15 -15 -16 -15 -14
-19 -19 -19 -19 -19 -19 -19 -19 -19 -19 -19 -19 -20 -20 -20 -21 -21 -21 -21 -22 -23 -22 -22 -23 -23 -23 -23 -23 -23 -23 -23 -22 -19 -18 -17 -18 -17 -17 -16 -16 -16 -16 -16 -14
-19 -19 -19 -19 -19 -19 -19 -19 -19 -19 -20 -20 -20 -20 -20 -20 -21 -21 -21 -21 -22 -22 -22 -22 -23 -23 -23 -23 -23 -23 -23 -23 -22 -19 -18 -17 -17 -17 -17 -16 -16 -16 -16 -15
-19 -19 -19 -19 -19 -19 -20 -20 -20 -20 -20 -20 -20 -20 -20 -20 -20 -21 -21 -21 -21 -22 -22 -22 -22 -23 -23 -23 -23 -24 -23 -23 -24 -23 -20 -18 -17 -17 -17 -17 -16 -16 -16 -16
-19 -20 -20 -20 -20 -20 -20 -20 -20 -20 -20 -20 -20 -20 -20 -20 -20 -20 -21 -21 -21 -21 -22 -22 -22 -23 -23 -23 -24 -24 -23 -24 -24 -23 -23 -21 -19 -17 -17 -17 -17 -16 -16 -16
-20 -19 -20 -20 -20 -20 -20 -20 -20 -20 -20 -20 -20 -20 -21 -20 -21 -21 -21 -21 -21 -21 -21 -22 -22 -23 -23 -23 -24 -24 -24 -24 -24 -24 -24 -23 -22 -20 -18 -18 -17 -17 -18 -17
-20 -20 -20 -20 -20 -20 -20 -20 -21 -20 -20 -21 -21 -20 -21 -21 -21 -21 -21 -21 -21 -21 -21 -21 -22 -23 -23 -24 -24 -24 -24 -24 -24 -23 -24 -23 -22 -21 -20 -20 -19 -18 -18 -18
-20 -20 -20 -20 -20 -20 -21 -20 -21 -21 -21 -21 -21 -21 -21 -21 -21 -21 -21 -21 -21 -21 -21 -22 -22 -23 -24 -24 -25 -25 -25 -25 -24 -24 -23 -23 -23 -23 -22 -22 -21 -20 -19 -18
-20 -20 -20 -20 -20 -20 -20 -20 -21 -21 -21 -21 -21 -21 -21 -21 -21 -21 -21 -21 -21 -22 -22 -22 -22 -23 -24 -25 -25 -26 -25 -25 -25 -25 -24 -23 -23 -23 -22 -21 -21 -21 -21 -19
-21 -21 -21 -21 -21 -20 -20 -21 -21 -21 -21 -21 -21 -21 -21 -21 -21 -21 -22 -21 -21 -22 -22 -22 -23 -23 -25 -25 -26 -26 -27 -26 -26 -25 -25 -24 -24 -24 -23 -22 -22 -21 -20 -20
-22 -21 -21 -21 -21 -21 -21 -21 -21 -21 -21 -21 -21 -22 -21 -21 -22 -22 -22 -22 -22 -22 -22 -23 -23 -24 -25 -26 -27 -27 -28 -28 -27 -27 -26 -25 -25 -24 -24 -23 -22 -22 -21 -20
-22 -22 -22 -22 -22 -21 -21 -21 -22 -21 -21 -21 -21 -22 -22 -22 -22 -22 -22 -22 -22 -23 -23 -24 -24 -25 -26 -27 -28 -28 -29 -29 -29 -29 -28 -27 -26 -26 -25 -24 -24 -22 -22 -22
-23 -22 -22 -23 -22 -22 -22 -22 -22 -22 -21 -21 -22 -22 -22 -22 -22 -22 -22 -22 -23 -23 -24 -25 -25 -26 -27 -28 -29 -29 -30 -30 -30 -30 -30 -29 -28 -27 -27 -26 -25 -24 -24 -22
-23 -23 -23 -22 -22 -22 -22 -22 -22 -22 -22 -22 -22 -22 -22 -23 -23 -23 -23 -23 -23 -24 -24 -25 -26 -27 -28 -29 -30 -31 -31 -32 -32 -32 -31 -31 -30 -29 -28 -28 -27 -27 -25 -24
-23 -23 -23 -22 -22 -22 -22 -22 -22 -22 -22 -22 -22 -23 -23 -23 -23 -23 -23 -24 -24 -24 -25 -26 -27 -28 -29 -30 -31 -32 -32 -33 -33 -33 -33 -32 -32 -31 -30 -29 -28 -28 -28 -27
-24 -23 -23 -23 -23 -22 -22 -22 -22 -23 -23 -23 -23 -23 -23 -23 -23 -23 -24 -24 -25 -25 -27 -27 -29 -29 -30 -31 -32 -33 -33 -33 -34 -34 -34 -33 -33 -32 -32 -31 -30 -29 -29 -28
-24 -24 -23 -23 -23 -23 -23 -23 -23 -23 -23 -23 -23 -23 -23 -24 -24 -24 -24 -25 -25 -26 -28 -29 -30 -31 -32 -33 -33 -34 -34 -34 -35 -35 -35 -34 -34 -34 -33 -33 -32 -31 -31 -30
-24 -24 -24 -23 -23 -23 -23 -23 -23 -23 -23 -24 -24 -24 -24 -24 -24 -25 -25 -26 -27 -28 -29 -30 -31 -32 -33 -34 -34 -35 -35 -35 -35 -35 -35 -35 -35 -35 -34 -34 -33 -33 -32 -32
-24 -24 -24 -23 -23 -23 -23 -24 -24 -24 -24 -24 -24 -24 -25 -25 -25 -25 -26 -27 -28 -29 -30 -31 -32 -33 -34 -35 -35 -35 -36 -36 -36 -36 -36 -36 -36 -36 -35 -35 -35 -34 -33 -33
-23 -24 -24 -24 -24 -24 -24 -24 -24 -24 -24 -24 -25 -25 -25 -25 -26 -26 -27 -28 -29 -31 -32 -33 -33 -35 -35 -36 -36 -36 -36 -36 -36 -37 -36 -36 -36 -36 -36 -36 -36 -35 -35 -34
-24 -24 -24 -24 -24 -24 -24 -24 -24 -24 -25 -25 -25 -25 -26 -26 -27 -27 -28 -30 -31 -32 -33 -34 -35 -35 -36 -36 -36 -36 -37 -37 -37 -37 -37 -37 -37 -37 -37 -36 -36 -36 -36 -35
-24 -25 -25 -25 -25 -24 -24 -24 -25 -25 -25 -26 -26 -26 -27 -27 -28 -29 -30 -31 -32 -33 -34 -35 -36 -36 -36 -36 -37 -37 -37 -37 -37 -37 -37 -37 -37 -36 -36 -36 -36 -36 -36 -36
-25 -25 -25 -25 -25 -25 -25 -25 -25 -26 -26 -26 -26 -27 -28 -28 -29 -30 -31 -33 -34 -35 -36 -36 -36 -37 -37 -37 -37 -37 -37 -37 -37 -37 -37 -37 -37 -37 -37 -36 -36 -36 -36 -36
Height
5583 5580 5574 5569 5563 5555 5546 5538 5529 5522 5510 5499 5488 5475 5464 5453 5443 5434 5429 5425 5426 5429 5432 5436 5440 5445 5452 5458 5468 5484 5501 5514 5526 5537 5549 5560 5570 5581 5591 5595 5606 5617 5625 5636
5581 5575 5570 5566 5561 5553 5545 5537 5529 5520 5513 5501 5490 5480 5469 5458 5447 5438 5431 5426 5425 5427 5430 5434 5437 5442 5447 5454 5462 5473 5490 5505 5517 5528 5540 5550 5560 5570 5581 5589 5595 5605 5617 5625
5576 5572 5567 5563 5556 5550 5543 5535 5527 5519 5512 5503 5493 5484 5474 5464 5453 5444 5436 5429 5425 5426 5428 5431 5434 5439 5442 5448 5456 5465 5478 5494 5507 5519 5530 5542 5548 5557 5570 5581 5587 5594 5607 5617
5569 5564 5561 5555 5551 5546 5541 5533 5525 5517 5510 5504 5495 5486 5478 5469 5459 5449 5441 5433 5427 5425 5426 5427 5430 5434 5439 5443 5449 5456 5466 5480 5493 5507 5518 5529 5538 5547 5557 5567 5576 5586 5597 5606
5559 5560 5557 5552 5547 5542 5537 5532 5523 5517 5509 5502 5496 5488 5480 5471 5463 5454 5446 5438 5431 5426 5425 5425 5427 5429 5433 5438 5442 5448 5455 5466 5478 5491 5504 5516 5526 5535 5545 5556 5564 5574 5583 5595
5553 5551 5546 5544 5540 5535 5531 5526 5520 5513 5506 5500 5494 5489 5481 5472 5465 5457 5449 5442 5435 5428 5424 5423 5423 5424 5427 5432 5435 5439 5446 5453 5465 5477 5491 5503 5514 5522 5531 5541 5550 5563 5576 5582
5546 5544 5544 5538 5535 5530 5526 5524 5515 5509 5504 5497 5492 5486 5480 5473 5465 5458 5450 5442 5434 5428 5422 5419 5418 5418 5420 5423 5428 5431 5436 5442 5450 5461 5473 5487 5500 5510 5519 5526 5534 5546 5561 5571
5541 5537 5537 5533 5529 5525 5521 5515 5510 5505 5500 5494 5488 5482 5476 5471 5464 5456 5449 5442 5435 5428 5422 5415 5412 5412 5411 5413 5418 5423 5426 5432 5440 5447 5457 5469 5483 5495 5504 5513 5520 5530 5541 5554
5534 5532 5529 5526 5522 5517 5514 5508 5504 5500 5495 5489 5483 5478 5472 5466 5460 5453 5446 5440 5433 5426 5420 5413 5407 5404 5403 5403 5406 5411 5416 5421 5428 5436 5443 5452 5462 5475 5486 5497 5506 5514 5523 5535
5528 5525 5523 5519 5516 5511 5507 5503 5498 5494 5490 5485 5478 5473 5466 5461 5455 5449 5442 5435 5429 5422 5415 5409 5403 5398 5394 5393 5394 5398 5404 5409 5415 5423 5431 5440 5448 5455 5468 5478 5487 5498 5507 5516
5522 5519 5516 5512 5508 5504 5500 5496 5492 5488 5484 5479 5473 5466 5461 5454 5449 5443 5437 5430 5423 5416 5408 5402 5396 5391 5386 5383 5382 5383 5389 5395 5401 5408 5415 5423 5431 5440 5449 5458 5467 5478 5489 5500
5514 5511 5508 5505 5501 5498 5494 5490 5485 5481 5476 5470 5465 5459 5454 5447 5442 5436 5430 5422 5416 5409 5401 5393 5387 5381 5376 5371 5370 5370 5372 5378 5385 5392 5399 5407 5414 5423 5430 5439 5447 5457 5468 5478
5505 5502 5499 5496 5492 5489 5486 5481 5476 5471 5467 5462 5457 5451 5446 5440 5434 5428 5422 5414 5407 5400 5392 5383 5376 5369 5364 5359 5356 5356 5357 5360 5366 5374 5381 5389 5397 5404 5412 5421 5430 5438 5448 5457
5495 5494 5491 5487 5483 5479 5476 5472 5468 5463 5458 5453 5448 5442 5437 5431 5425 5419 5412 5404 5397 5389 5381 5373 5365 5357 5351 5346 5343 5341 5342 5344 5347 5353 5361 5369 5377 5386 5393 5401 5410 5420 5428 5438
5486 5484 5482 5479 5475 5471 5467 5462 5458 5453 5448 5443 5439 5433 5427 5420 5414 5408 5401 5394 5386 5378 5369 5361 5353 5345 5338 5333 5329 5327 5326 5327 5330 5333 5339 5346 5355 5363 5371 5379 5389 5400 5408 5416
5476 5474 5471 5468 5465 5460 5456 5452 5449 5443 5438 5433 5428 5422 5416 5409 5403 5396 5389 5381 5373 5365 5356 5347 5339 5331 5324 5319 5315 5312 5311 5312 5314 5316 5320 5325 5333 5341 5349 5358 5366 5375 5385 5393
5466 5465 5463 5458 5454 5451 5446 5442 5438 5433 5428 5423 5417 5411 5405 5398 5392 5385 5377 5368 5359 5350 5342 5333 5325 5317 5311 5305 5301 5298 5297 5296 5298 5300 5303 5307 5312 5319 5327 5335 5345 5353 5361 5371
5458 5455 5451 5446 5443 5440 5436 5432 5427 5422 5417 5412 5406 5399 5392 5386 5378 5371 5362 5353 5344 5336 5328 5319 5310 5303 5297 5292 5288 5285 5283 5283 5283 5285 5288 5291 5295 5300 5307 5314 5322 5331 5339 5348
5445 5443 5438 5434 5432 5428 5424 5420 5416 5411 5405 5399 5393 5386 5380 5373 5365 5356 5347 5339 5329 5320 5313 5304 5296 5289 5283 5279 5275 5273 5271 5270 5271 5271 5273 5276 5279 5283 5288 5294 5301 5309 5317 5326
5435 5431 5427 5423 5420 5416 5412 5408 5404 5398 5392 5386 5379 5373 5367 5359 5351 5342 5334 5325 5315 5306 5297 5290 5283 5275 5270 5266 5263 5261 5259 5259 5259 5260 5261 5263 5265 5269 5272 5276 5282 5289 5296 5304
5424 5420 5416 5412 5409 5405 5400 5396 5391 5385 5379 5372 5366 5359 5352 5345 5337 5327 5319 5309 5300 5291 5283 5275 5268 5263 5258 5254 5251 5249 5249 5248 5248 5249 5250 5252 5253 5255 5258 5262 5266 5270 5277 5283
5413 5409 5405 5401 5397 5393 5389 5384 5379 5373 5366 5359 5352 5345 5338 5330 5321 5312 5303 5294 5284 5276 5268 5262 5256 5250 5246 5243 5240 5238 5238 5238 5238 5239 5239 5241 5243 5244 5247 5250 5252 5256 5259 5264
5401 5398 5393 5389 5385 5381 5376 5371 5366 5359 5353 5346 5339 5332 5324 5315 5306 5297 5287 5278 5270 5262 5255 5249 5244 5239 5235 5232 5230 5229 5229 5229 5229 5230 5230 5231 5232 5233 5235 5237 5239 5242 5245 5249
5390 5386 5381 5377 5373 5368 5364 5358 5352 5346 5339 5333 5325 5317 5309 5299 5290 5280 5271 5264 5256 5249 5243 5238 5233 5229 5225 5223 5221 5220 5220 5219 5220 5220 5220 5221 5222 5223 5224 5225 5227 5229 5232 5235
5377 5374 5370 5366 5361 5356 5350 5345 5338 5332 5326 5318 5310 5302 5293 5284 5275 5266 5258 5250 5243 5236 5231 5227 5223 5220 5217 5215 5213 5212 5211 5210 5209 5209 5210 5210 5210 5211 5212 5213 5215 5216 5219 5221
5366 5363 5359 5354 5349 5343 5337 5331 5325 5319 5311 5303 5295 5286 5278 5268 5260 5252 5244 5237 5231 5225 5221 5217 5214 5211 5208 5206 5204 5202 5201 5200 5198 5197 5197 5197 5197 5197 5198 5199 5201 5203 5205 5208
5355 5352 5347 5342 5336 5330 5324 5318 5312 5304 5296 5288 5280 5271 5262 5254 5246 5239 5232 5225 5220 5215 5212 5209 5205 5202 5199 5196 5193 5190 5188 5186 5184 5183 5182 5181 5181 5181 5181 5183 5185 5187 5190 5193
Wind_Speed
27 24 27 29 31 34 37 40 44 46 49 50 53 56 55 53 47 38 29 17 11 15 18 19 22 24 32 42 60 79 81 81 81 83 81 83 83 86 84 79 67 60 59 57
21 23 24 26 27 31 34 37 40 44 46 48 50 52 53 54 52 45 35 26 14 14 19 21 22 22 26 33 43 66 81 82 82 81 81 82 87 84 83 83 79 53 49 55
18 19 20 23 26 29 32 34 38 41 44 45 47 49 51 51 52 49 42 31 23 12 17 23 24 23 24 28 33 49 71 83 84 82 83 82 86 83 78 79 81 74 50 64
20 22 21 24 26 28 30 32 35 39 42 43 44 47 48 50 51 51 46 38 28 20 12 21 26 27 25 28 31 37 57 77 83 84 83 84 85 81 81 81 82 79 63 51
24 18 20 22 23 26 28 30 33 36 39 42 42 44 45 47 49 50 49 43 35 25 17 15 25 29 29 29 31 34 39 60 80 84 84 85 85 83 85 84 82 75 80 63
25 23 24 23 25 27 29 30 32 35 37 39 41 42 43 44 46 48 49 47 40 32 23 16 19 29 31 31 32 33 36 44 60 76 84 85 85 86 84 88 83 77 70 61
23 23 20 24 25 26 29 30 32 34 35 36 38 41 41 42 43 46 49 48 46 39 31 22 18 22 33 35 34 35 36 41 48 60 75 84 86 88 86 87 86 82 85 77
20 23 22 25 25 26 28 30 31 33 34 35 37 39 41 42 42 44 46 48 46 44 38 30 22 22 26 37 38 38 39 43 49 50 60 74 86 89 89 89 90 87 87 88
23 24 26 28 29 29 29 30 30 32 33 35 37 37 39 41 43 43 45 47 48 46 43 36 30 22 25 30 41 42 43 49 54 53 53 60 72 85 90 91 92 90 93 86
21 26 25 28 27 29 27 28 30 32 33 34 36 37 39 41 42 43 44 46 48 48 46 42 35 29 23 29 33 45 47 52 54 62 60 63 67 72 82 88 91 92 84 84
20 23 25 28 28 28 29 30 31 32 32 33 35 38 38 41 42 44 44 46 48 49 49 46 41 34 28 26 33 39 51 53 55 69 66 64 66 71 74 78 86 88 87 82
22 24 27 27 28 29 30 31 32 32 32 34 36 39 40 42 43 45 46 47 49 50 50 49 46 39 31 27 29 38 44 57 59 67 76 69 69 70 71 73 76 77 84 86
26 27 29 30 30 31 31 32 34 35 34 35 37 39 41 42 44 46 47 48 51 51 51 51 49 44 36 29 28 33 42 49 63 67 78 83 79 73 76 75 75 73 74 80
30 30 29 30 32 33 33 34 33 35 35 37 38 39 41 44 46 47 48 50 51 54 53 53 50 46 39 34 29 32 36 45 53 67 73 80 84 86 84 83 79 78 80 78
33 33 32 31 31 31 31 33 34 36 36 37 39 40 42 45 47 49 50 52 53 55 56 54 52 47 41 36 31 31 35 38 46 55 68 77 81 84 87 84 86 87 85 84
35 33 36 35 33 32 32 33 32 35 36 39 40 42 44 46 49 50 51 53 55 57 57 55 52 47 43 36 31 31 34 36 40 48 56 67 79 84 86 90 87 94 92 89
33 35 35 34 34 34 34 34 34 36 38 41 42 43 45 48 51 52 53 54 57 58 59 55 51 48 42 35 31 31 32 35 37 41 49 56 65 79 85 87 89 93 93 93
33 31 29 36 33 34 35 36 36 38 40 41 44 45 47 50 53 54 55 56 58 59 59 55 51 47 41 35 30 30 31 32 34 37 40 47 54 62 75 85 88 88 90 95
31 28 32 35 34 34 35 37 37 39 40 43 45 47 50 53 55 56 58 59 60 60 58 54 49 45 39 33 30 29 30 31 32 34 36 39 44 51 59 70 81 89 89 88
32 33 35 37 37 37 37 38 40 43 45 46 47 49 52 56 57 58 60 60 60 59 56 52 46 42 37 32 28 28 28 29 30 31 34 35 38 42 48 55 64 74 84 89
32 34 38 39 38 39 40 40 42 46 47 48 49 51 55 58 58 60 61 61 60 58 54 48 43 38 33 29 27 26 26 27 28 29 31 33 34 36 40 44 49 56 66 74
34 36 38 39 39 41 41 41 44 47 49 49 49 53 57 57 60 61 62 60 59 55 50 44 39 34 30 26 25 25 25 25 26 27 28 30 31 33 35 38 41 45 51 58
37 39 39 38 38 38 40 44 47 49 50 50 52 56 56 58 61 62 61 59 56 51 46 40 35 31 27 24 24 24 24 24 24 25 26 27 28 30 33 35 37 40 44 47
37 40 38 37 36 38 43 47 50 50 51 53 55 56 58 60 61 61 60 57 52 46 41 35 30 27 25 22 21 22 23 24 25 26 27 27 28 29 31 33 35 37 40 42
35 37 35 36 40 44 48 49 49 50 52 54 55 57 59 60 61 59 57 52 46 41 35 31 27 24 23 22 23 24 26 27 28 29 30 31 32 33 34 35 36 38 39 41
33 33 36 41 46 48 48 48 49 52 53 54 57 59 59 60 59 56 52 47 41 35 30 27 25 23 23 25 26 28 29 30 32 33 33 35 36 37 38 38 39 41 42 42
32 36 41 46 48 47 48 50 51 51 54 57 58 59 59 58 55 51 46 40 34 29 26 24 24 26 28 30 31 31 32 32 33 34 36 37 39 41 43 44 44 44 44 44
Wind_Direction
319 327 333 342 348 351 355 357 1 5 5 6 9 9 9 11 10 7 4 347 280 247 237 239 233 229 227 229 230 225 220 216 217 217 217 218 220 222 221 222 212 213 208 215
313 320 327 337 344 350 353 356 1 3 6 6 8 10 10 11 11 12 6 0 338 260 242 238 242 238 233 228 231 230 224 220 218 220 218 218 222 225 226 233 234 213 217 228
315 313 319 329 342 348 350 354 359 1 5 8 6 9 11 12 12 12 12 3 354 319 255 243 242 244 243 238 231 232 230 224 222 220 221 220 224 228 226 229 236 230 228 219
316 313 320 331 336 343 347 351 356 359 2 6 7 7 9 11 13 12 12 10 359 345 297 255 246 246 244 244 239 232 232 230 226 223 222 222 224 228 228 227 233 238 221 221
310 311 317 318 333 335 343 347 352 355 357 2 5 5 7 9 10 12 11 11 8 353 330 279 253 248 246 245 242 236 229 231 230 227 225 224 224 226 227 227 231 234 233 225
305 311 318 324 331 335 338 344 347 351 353 358 359 4 4 6 8 9 11 9 9 4 347 308 270 251 248 245 243 239 229 225 227 229 226 225 225 226 228 229 231 228 225 214
298 303 312 318 323 329 334 338 343 348 349 351 356 359 2 2 5 6 8 9 5 4 359 338 291 264 248 245 242 237 230 223 221 221 227 226 225 227 228 231 233 231 228 224
298 303 310 311 317 324 328 332 338 340 344 346 351 354 357 359 0 2 4 5 4 0 357 351 327 280 259 246 241 234 233 223 211 215 219 224 224 226 228 230 234 234 234 234
301 304 311 311 314 316 321 325 331 333 339 342 345 349 352 354 355 357 359 1 0 359 354 350 342 315 272 255 242 234 229 224 214 208 213 216 222 223 227 230 233 236 237 236
299 301 308 308 311 311 317 322 325 328 333 337 340 344 347 350 350 351 353 355 357 355 354 347 344 332 300 263 248 238 230 224 220 211 214 212 213 221 224 228 233 233 237 241
294 299 305 309 311 310 316 318 320 319 326 332 337 339 343 345 346 345 347 350 352 351 350 347 341 335 319 284 254 241 232 227 223 215 213 209 206 209 212 220 227 232 234 235
296 300 302 309 309 313 313 313 314 314 321 326 333 336 340 340 342 341 342 344 345 347 346 344 339 333 324 301 271 247 237 229 225 220 217 216 210 212 215 217 225 226 231 233
289 296 301 307 309 311 313 312 313 315 319 321 327 332 335 336 337 337 338 339 340 342 342 340 337 332 324 305 283 260 242 234 227 222 219 219 218 211 208 210 212 218 225 230
284 290 297 301 303 307 311 310 310 314 319 319 323 327 330 332 333 334 334 335 337 338 338 336 334 329 321 308 290 270 253 240 232 227 224 223 222 221 216 212 211 213 213 213
278 285 292 295 296 301 307 309 310 314 319 320 321 323 327 330 331 331 331 332 333 335 334 333 330 326 317 309 295 276 260 247 239 233 228 226 225 226 226 222 216 218 215 213
272 284 291 294 296 301 306 307 307 312 316 319 320 322 325 328 328 328 328 330 330 331 330 329 327 322 315 308 295 278 266 256 244 236 233 230 228 227 228 229 227 220 218 218
271 285 290 291 294 301 303 305 305 308 312 317 320 321 324 326 326 325 326 328 329 329 328 326 324 319 313 305 293 279 268 259 252 242 235 232 231 229 230 229 228 228 229 226
281 293 292 288 293 299 302 304 304 306 309 314 319 320 322 324 324 324 325 326 327 327 325 322 320 316 310 303 290 277 268 262 255 248 241 236 233 231 230 230 230 230 230 231
301 302 289 290 293 296 299 302 305 308 311 315 319 321 322 322 322 323 323 324 325 325 323 320 317 312 307 299 289 277 268 262 255 250 245 240 237 235 233 232 232 232 232 231
302 302 297 295 294 294 297 300 303 308 312 316 319 321 321 320 321 322 322 322 323 323 319 318 314 309 304 297 287 277 269 263 256 250 247 244 241 239 237 236 234 234 233 234
302 301 299 298 296 296 299 302 306 311 313 315 318 320 319 318 319 321 321 321 322 321 317 315 311 307 300 293 284 275 269 262 256 252 249 246 244 242 241 240 239 238 236 236
298 301 301 300 298 300 302 305 311 313 314 316 317 319 316 318 319 320 320 321 320 318 316 313 308 302 296 289 279 273 268 262 258 255 252 249 247 246 244 243 242 241 240 239
293 304 304 301 301 304 306 310 312 314 315 315 317 314 316 317 318 319 320 320 317 315 313 310 305 299 292 285 280 276 273 269 263 257 254 252 250 248 247 245 244 242 241 241
293 305 306 304 306 310 312 312 313 314 314 313 312 314 317 317 318 319 319 317 316 313 311 307 301 294 290 287 281 276 273 269 265 262 260 258 255 252 250 249 247 245 244 243
300 305 305 309 312 313 313 313 313 312 311 311 314 316 316 317 318 318 317 316 314 311 308 303 299 293 291 287 283 279 275 273 270 267 264 262 259 256 254 252 250 249 247 246
302 303 308 312 314 314 313 312 311 309 310 315 315 316 317 318 317 316 315 314 312 309 305 301 298 295 292 290 287 284 280 276 273 270 268 265 263 261 259 256 253 251 250 248
300 304 309 313 314 312 310 309 307 312 315 315 315 316 317 316 315 315 314 312 310 306 302 300 299 300 299 296 292 289 285 282 279 276 272 268 265 263 260 258 255 253 251 249